Pasco, WA

2:40 AM PST on December 05, 2016 (GMT -0800)
Tri-Cities

Weather History for KPSC - May, 2013

Change the Weather History Date:

Sunday, May 19, 2013

  Actual Average Record
Temperature  
Mean Temperature 66 °F 62 °F  
Max Temperature 76 °F 76 °F 94 °F (2006)
Min Temperature 55 °F 47 °F 32 °F (2003)
Degree Days  
Heating Degree Days 0 4  
Month to date heating degree days 60 126  
Since 1 July heating degree days 4625 4950  
Cooling Degree Days 1 1  
Month to date cooling degree days 46 11  
Year to date cooling degree days 46 12  
Growing Degree Days 15 (Base 50)    
Moisture  
Dew Point 40 °F    
Average Humidity 44    
Maximum Humidity 62    
Minimum Humidity 25    
Precipitation  
Precipitation T in 0.02 in 0.22 in (1962)
Month to date precipitation 0.07 0.38  
Year to date precipitation 1.33 3.90  
Snow  
Snow 0.00 in - - ()
Snow Depth 0.00 in    
Sea Level Pressure  
Sea Level Pressure 30.22 in    
Wind  
Wind Speed 7 mph (SSW)    
Max Wind Speed 15 mph    
Max Gust Speed 18 mph    
Visibility 10 miles    
Events Rain    
T = Trace of Precipitation, MM = Missing Value Source: NWS Daily Summary

Daily Weather History Graph

Daily Weather History Graph

Search for Another Location

Airport or City:

Trip Planner

Search our weather history database for the weather conditions in past years. The results will help you decide how hot, cold, wet, or windy it might be!

Date:

Astronomy

May. 19, 2013 Rise Set
Actual Time 5:18 AM PDT 8:27 PM PDT
Civil Twilight 4:42 AM PDT 9:04 PM PDT
Nautical Twilight 3:56 AM PDT 9:50 PM PDT
Astronomical Twilight 2:59 AM PDT 10:48 PM PDT
Moon 2:18 PM PDT (5/19) 2:05 AM PDT (5/19)
Length of Visible Light 16h 21m
Length of Day
15h 09m
Waxing Gibbous, 66% of the Moon is Illuminated
May 19
Waxing Gibbous
May 24
Full
May 31
Last Quarter
Jun 8
New
Jun 16
First Quarter

Hourly Weather History & Observations

Time (PDT) Temp. Dew Point Humidity Pressure Visibility Wind Dir Wind Speed Gust Speed Precip Events Conditions
12:53 AM 57.9 °F 37.9 °F 47% 30.16 in 10.0 mi West 9.2 mph - N/A   Mostly Cloudy
1:53 AM 55.0 °F 39.0 °F 55% 30.17 in 10.0 mi SW 5.8 mph - N/A   Overcast
2:53 AM 55.9 °F 37.9 °F 51% 30.19 in 10.0 mi SW 10.4 mph - N/A   Overcast
3:53 AM 55.0 °F 39.9 °F 57% 30.20 in 10.0 mi SW 8.1 mph - N/A   Overcast
5:53 AM 55.9 °F 41.0 °F 57% 30.25 in 10.0 mi SSW 4.6 mph - 0.00 in Rain Light Rain
6:53 AM 55.9 °F 42.1 °F 60% 30.25 in 10.0 mi SW 6.9 mph - 0.00 in   Overcast
7:53 AM 57.0 °F 42.1 °F 57% 30.27 in 10.0 mi Calm Calm - N/A   Overcast
8:53 AM 57.9 °F 44.1 °F 60% 30.27 in 10.0 mi South 4.6 mph - 0.00 in   Overcast
9:53 AM 62.1 °F 39.9 °F 44% 30.28 in 10.0 mi SSW 4.6 mph - N/A   Overcast
10:53 AM 66.0 °F 39.0 °F 37% 30.27 in 10.0 mi Variable 6.9 mph - N/A   Partly Cloudy
11:53 AM 66.9 °F 37.9 °F 34% 30.25 in 10.0 mi Calm Calm - N/A   Scattered Clouds
1:53 PM 72.0 °F 39.0 °F 30% 30.22 in 10.0 mi SSW 4.6 mph - N/A   Clear
2:53 PM 73.0 °F 39.0 °F 29% 30.22 in 10.0 mi East 4.6 mph - N/A   Clear
3:53 PM 75.0 °F 37.9 °F 26% 30.21 in 10.0 mi Variable 4.6 mph - N/A   Clear
4:53 PM 75.0 °F 37.0 °F 25% 30.20 in 10.0 mi East 4.6 mph - N/A   Clear
5:53 PM 73.9 °F 39.0 °F 28% 30.19 in 10.0 mi SE 4.6 mph - N/A   Clear
6:53 PM 73.9 °F 39.0 °F 28% 30.19 in 10.0 mi SE 9.2 mph - N/A   Clear
7:53 PM 71.1 °F 39.0 °F 31% 30.19 in 10.0 mi SE 10.4 mph - N/A   Clear
9:19 PM 66.2 °F 39.2 °F 37% 30.21 in 10.0 mi NW 15.0 mph - N/A   Clear
9:53 PM 60.1 °F 42.1 °F 51% 30.22 in 10.0 mi NW 9.2 mph - N/A   Clear
10:53 PM 57.0 °F 42.1 °F 57% 30.23 in 10.0 mi NNW 6.9 mph - N/A   Clear
11:53 PM 57.0 °F 39.9 °F 53% 30.24 in 10.0 mi North 4.6 mph - N/A   Clear